Temp
18 18 18 18 18 19 18 18 18 18 18 19 19 19 19 19 20 19 19 18 18 18 18 18 18 18 18 18 18 17 17 17 18
17 18 18 18 18 18 19 18 18 18 18 19 19 19 19 19 19 18 18 18 18 18 18 18 18 18 18 18 18 17 17 17 16
18 17 17 16 16 17 18 18 18 18 18 18 18 18 18 18 18 18 18 18 18 17 17 18 17 18 18 17 17 16 16 16 16
16 18 18 19 19 19 18 19 18 18 18 19 18 18 18 17 17 17 18 18 18 17 17 18 17 18 18 18 17 17 17 16 16
16 16 17 17 16 16 17 17 17 17 18 18 18 17 17 17 17 17 17 18 18 18 18 18 17 17 18 17 17 18 17 16 16
16 16 16 16 16 15 15 16 16 17 18 18 17 17 17 16 16 16 17 17 17 17 17 17 17 17 17 17 17 18 17 16 15
15 15 15 15 15 16 15 16 16 16 17 17 17 16 16 16 16 16 16 16 16 16 16 17 17 17 17 17 17 17 17 17 16
14 15 15 15 15 15 15 15 15 15 16 16 16 16 15 16 16 16 16 15 16 16 16 16 16 16 16 17 17 16 16 16 16
14 15 15 14 14 15 15 14 15 15 15 15 15 15 15 14 15 15 16 16 15 15 15 15 16 16 16 16 16 16 16 16 16
12 12 13 14 13 13 14 14 14 14 14 14 14 14 14 14 14 14 15 15 16 16 14 15 15 15 15 15 15 16 15 15 15
11 11 11 12 13 13 13 13 14 14 14 14 14 14 14 14 13 13 14 14 15 15 14 14 14 14 14 14 14 14 14 15 15
9 10 10 10 12 13 13 13 14 14 14 14 14 14 13 13 13 13 13 13 13 14 14 13 13 13 14 13 14 13 13 13 14
8 8 9 9 10 11 12 13 13 13 14 14 14 13 13 13 12 13 13 13 12 13 13 13 12 12 12 12 12 12 12 12 13
6 7 8 8 9 10 10 11 12 12 13 13 13 13 13 12 12 12 11 12 12 12 12 12 12 10 10 10 11 11 11 12 12
6 6 7 7 8 9 10 10 10 11 11 13 13 13 12 12 11 11 11 11 11 11 11 11 10 10 11 9 9 10 11 11 11
5 5 5 5 6 6 8 9 9 10 11 12 12 12 12 12 11 11 11 11 11 11 10 10 9 9 9 9 7 8 9 10 10
3 3 3 3 4 5 5 6 7 7 7 7 9 11 11 11 11 11 10 10 10 10 9 9 8 8 8 7 7 5 7 8 8
1 1 1 2 3 2 2 3 4 5 5 6 6 7 8 9 11 9 8 8 9 8 8 7 6 6 7 6 6 4 5 6 7
-1 -0 0 0 0 1 1 2 3 3 3 5 4 4 4 3 8 8 7 7 7 6 6 6 6 5 5 5 4 3 3 4 5
-2 -2 -1 -1 -1 -1 -0 0 1 2 1 1 2 3 3 3 3 4 3 6 5 5 5 4 4 4 3 3 3 2 2 3 4
Height
850 850 849 848 847 846 848 847 847 847 848 847 847 847 846 847 847 848 848 848 849 849 849 851 852 852 853 854 854 854 854 854 855
853 853 851 850 850 850 851 851 851 851 851 850 850 850 849 850 851 851 852 852 851 852 852 854 856 855 856 857 857 857 857 858 859
853 853 853 854 852 852 852 854 855 854 854 855 854 853 853 853 854 853 855 855 855 855 855 856 858 857 858 859 859 860 860 860 861
854 854 854 852 851 852 853 854 856 858 859 858 858 857 856 856 856 856 857 858 857 857 857 858 860 860 860 860 862 862 863 863 863
856 857 858 857 858 857 859 860 861 863 863 863 861 859 859 859 859 858 859 860 859 860 861 860 861 863 862 862 863 864 865 866 865
859 860 861 861 862 863 863 864 865 865 866 864 864 862 863 862 861 862 862 861 861 862 862 862 863 865 864 863 864 865 866 867 868
862 863 864 866 866 867 866 866 866 866 866 865 865 866 866 864 864 864 864 863 863 864 865 866 866 866 867 865 865 867 869 869 870
863 863 866 868 869 869 869 868 868 868 868 867 867 867 868 868 867 867 867 867 867 866 866 865 866 868 868 868 868 869 870 872 872
863 864 867 869 870 871 871 870 871 871 871 871 870 870 870 871 871 870 870 870 870 870 870 869 869 869 870 871 871 872 873 873 874
867 868 868 869 870 870 871 872 874 874 874 874 873 872 873 873 874 873 873 873 873 873 873 873 872 872 872 873 873 874 874 875 874
869 870 870 871 871 871 873 874 874 875 876 875 875 874 874 875 876 876 876 876 875 875 875 876 876 876 875 874 874 875 875 876 876
871 870 871 872 872 873 873 874 876 876 876 876 877 877 877 877 878 878 877 877 878 878 878 878 878 879 879 878 877 878 878 877 876
873 871 871 873 873 873 873 874 875 876 877 879 879 879 879 879 879 879 880 880 880 880 880 880 880 881 881 881 880 880 879 879 878
874 873 873 874 874 874 874 875 876 877 878 879 880 880 880 881 881 881 881 883 882 882 882 882 882 882 882 882 882 883 881 881 879
876 875 875 875 876 875 876 877 877 878 878 878 879 881 882 883 883 883 884 885 885 884 884 884 883 883 884 883 884 884 883 883 881
877 877 877 878 878 878 878 878 879 879 878 878 880 881 884 884 884 885 886 887 888 888 887 886 884 885 885 884 884 884 883 883 881
879 880 879 880 881 881 880 880 881 881 880 880 882 884 886 885 886 887 888 889 889 889 889 888 887 887 887 887 885 885 885 884 882
882 882 883 883 883 884 884 884 884 884 885 885 886 886 887 886 887 888 889 890 890 891 891 890 889 888 889 889 886 887 886 885 883
885 885 886 886 886 887 888 887 886 886 887 888 889 890 891 891 890 889 889 891 892 894 894 891 891 891 890 890 889 888 887 887 883
889 889 888 889 889 890 891 891 889 890 891 892 892 892 893 893 895 893 892 892 894 896 895 893 892 892 892 891 890 889 887 885 884
Wind_Speed
11 13 16 18 20 19 19 19 19 18 16 15 15 15 16 15 17 15 14 18 18 18 19 19 18 21 20 20 18 18 18 17 17
13 13 16 16 17 18 19 18 18 19 18 15 15 17 17 15 14 16 17 16 17 18 18 18 18 18 17 16 15 16 18 17 16
13 15 16 15 17 18 19 17 18 20 21 20 22 21 22 20 19 17 16 15 16 16 17 17 15 16 15 14 16 16 17 17 16
16 14 14 14 14 14 16 15 16 17 19 20 24 19 20 22 17 16 13 12 13 16 17 16 15 16 16 16 16 16 15 14 15
16 16 14 14 15 15 16 15 14 15 15 20 22 21 18 17 19 19 13 9 7 9 12 15 16 13 14 15 14 13 11 13 14
18 18 16 18 16 16 15 11 12 12 15 20 20 18 18 23 22 22 14 13 9 9 7 8 11 9 11 14 14 13 11 12 12
17 17 16 15 15 12 12 9 8 12 12 19 23 19 21 24 25 26 23 20 16 12 10 9 7 7 9 12 13 12 11 11 11
13 14 15 13 10 14 13 13 18 14 14 16 20 21 18 20 23 23 23 24 23 19 14 14 11 11 11 11 12 13 11 11 10
12 8 8 14 14 15 13 16 17 19 20 19 16 16 18 15 18 20 20 21 22 22 24 18 14 14 13 13 12 12 9 10 10
12 11 10 10 15 13 13 13 12 15 16 16 18 17 14 13 12 15 17 17 17 18 22 22 22 22 18 15 14 11 11 11 10
13 13 12 10 10 15 13 12 12 12 12 15 15 13 12 11 10 10 12 16 15 15 17 20 20 21 18 18 21 19 14 10 10
12 11 12 13 10 9 11 12 9 12 12 13 11 11 10 9 8 9 10 13 15 14 14 16 19 19 19 20 15 19 18 15 15
13 14 15 12 10 11 13 13 10 11 11 10 9 9 11 9 8 9 11 13 13 16 15 15 18 20 20 20 19 19 15 18 17
14 15 16 12 10 11 13 15 9 8 6 10 8 8 11 12 11 13 16 16 14 16 17 17 17 20 21 22 21 20 20 20 19
14 15 15 13 12 12 12 16 11 10 7 6 6 7 10 13 16 17 17 17 18 17 16 17 17 15 15 21 23 22 21 20 20
12 14 14 16 16 15 13 13 16 12 10 5 7 12 11 13 16 17 18 19 20 20 18 16 16 14 14 17 24 25 24 22 21
16 15 17 15 16 17 17 15 16 14 17 9 3 3 8 11 12 13 14 18 16 20 21 17 17 15 15 17 18 24 24 23 21
18 18 18 18 18 19 19 17 17 13 14 17 9 4 2 4 11 18 18 16 14 15 17 15 16 14 13 17 20 24 24 24 23
20 19 19 19 20 20 18 17 17 17 16 6 15 13 9 3 1 9 14 15 15 17 12 12 13 14 15 17 20 23 23 23 23
20 19 19 20 20 19 19 18 18 19 20 19 11 8 9 11 7 3 13 11 10 13 11 11 13 14 15 18 22 22 23 25 23
Wind_Direction
73 64 60 64 69 70 69 67 62 62 65 73 71 71 79 87 93 93 96 86 87 87 87 85 84 83 82 78 77 77 76 79 82
73 62 66 65 71 78 73 68 68 64 65 66 70 68 66 75 95 92 88 84 83 85 88 88 90 89 87 86 81 76 74 73 73
77 62 61 65 73 73 78 71 69 70 68 65 60 70 71 69 73 84 89 92 89 86 88 87 85 88 89 86 83 76 75 73 71
69 66 53 49 49 61 65 63 61 64 73 73 68 64 71 71 71 76 85 84 90 91 93 91 86 82 82 81 80 78 72 67 70
64 68 61 62 61 71 81 84 88 77 78 70 73 67 64 66 70 64 68 92 97 98 94 93 83 81 82 82 80 72 68 69 70
62 65 66 67 67 76 79 80 91 90 88 82 70 66 68 72 70 63 63 77 88 89 96 108 102 98 88 88 78 64 68 68 70
65 69 65 66 57 61 81 67 95 83 94 87 78 67 68 70 69 68 61 64 73 89 103 104 92 83 84 93 75 63 66 68 68
84 87 80 77 81 66 62 81 77 78 78 89 90 86 69 66 69 67 66 61 60 64 71 76 78 71 70 66 66 61 65 63 63
62 84 92 70 66 80 63 58 68 71 67 72 82 90 86 74 69 69 66 62 59 59 57 65 68 73 72 63 62 60 50 56 52
76 76 99 87 75 72 78 80 68 65 58 55 65 69 71 75 70 64 64 65 62 58 58 58 62 64 67 65 63 62 58 51 43
79 79 71 79 83 84 71 65 67 72 75 63 50 55 62 62 66 65 68 61 61 63 62 60 61 59 63 66 61 60 59 51 39
75 89 75 48 72 92 89 79 54 53 55 55 47 49 50 62 53 67 76 71 56 62 62 63 61 61 59 52 53 49 47 49 51
69 73 67 55 56 65 72 64 59 54 55 39 49 66 54 60 60 59 68 84 72 62 64 58 62 61 60 56 51 45 36 33 30
71 75 73 62 61 66 68 62 59 57 54 36 51 68 73 71 73 81 77 74 79 78 70 59 60 64 57 51 46 40 37 34 30
74 75 75 69 66 63 76 68 43 36 22 40 39 88 82 77 85 78 74 74 67 68 73 74 66 55 49 47 44 40 38 32 28
74 72 70 67 59 55 59 76 49 34 37 58 69 112 84 95 83 84 83 75 67 60 57 62 73 54 44 44 40 38 34 32 30
69 69 69 65 61 56 55 59 65 44 36 32 319 158 91 96 105 94 76 65 67 59 51 73 66 55 40 34 33 30 27 26 22
70 70 70 66 64 57 54 50 55 46 57 55 47 17 45 353 110 96 80 60 53 40 53 70 67 45 22 21 28 25 23 18 15
67 70 71 70 67 60 58 57 61 59 45 62 68 60 53 31 30 78 49 45 39 41 58 54 45 35 22 13 20 20 19 13 14
65 66 70 69 67 64 61 59 63 69 61 53 50 60 44 40 27 335 358 359 32 45 41 45 38 28 19 7 10 14 13 10 11